Showing default

DS-EO, 52935

Orbit data source: Space-Track

DS-EO, 52935 is a Singaporean payload satellite in LEO that was launched on Thu, 30 Jun 2022 UTC via a PSLV launch vehicle from the Sirharikota (SRI). Payload-class satellites include a variety of spacecraft equipped with specific instruments for various scientific and technological missions. These include communications satellites like Starlink; space stations such as the ISS; scientific satellites like the Hubble; Earth observation satellites from companies like Planet Labs, Umbra, and HawkEye 360; GPS; miniature CubeSats for education and research; and military/defense satellites.

Not visible in the next 10 days
Identifier
52935, 2022-072A
Orbit
LEO
Country
Flag of UnknownUnknown / SING
Related business
Manufacturer
SATRHW/STELEC
Mission
Operational Defense Imaging
Bus & Motor
DS-EO, Unknown motor
Mass
365 kg wet, ~350 kg dry
Launch date (UTC)
2022-06-30 (3 years ago)
Launch vehicle
PSLV
Launch site
Sirharikota (SRI)
Object type
Payload
Rocket body
Debris
Shape & HBR
Box + 1 Pan, 1.0 m
Radar Cross Section
6.000 m², Large (>1 m²)

Expand to show TLE details & history
Last TLE update: 19 hours ago

TLE from 19 hours ago
0 DS-EO
1 52935U 22072A   25245.21748587  .00010828  00000-0  59180-3 0  9992
2 52935   9.9933 173.2408 0002703  72.4402 287.6109 15.10427104174847
Epoch: 2025-09-02T05:13Z
TLE epoch observation values (Epoch: 2025-09-02T05:13:10.779Z)
Latitude
0.00001°
Longitude
113.33407°
Altitude
531.352 km
Speed
7.601 km/s
True Right ascension
11h 32m 57s
True Declination
0° 00' 00"
Sunlit
Object was in daylight at epoch
Visualization orbit readout
Latitude
Unknown
Longitude
Unknown
Altitude
Unknown
Speed
Unknown
Apparent Right ascension
Unknown
Apparent Declination
Unknown
Sunlit
N/A
Visualization observer readout
Local Sidereal Time
16:08:09
Azimuth
Unknown
Elevation
Unknown
Doppler factor
Unknown
Orbital elements
Apogee altitude
542.858 km
Perigee altitude
539.118 km
Semi-major axis
6,919.125 km
Eccentricity
0.00027
Inclination
9.9933°
RAAN
173.2408°
Arg. of periapsis
72.4402°
True anomaly
287.58137°
Mean anomaly
287.6109°
Eccentric anomaly
287.59614°
Mean motion
3.77109 °/min
Orbital period
95.46 mins
BSTAR
0.0005918
Loading maneuver chart data...
Computing Atmospheric mass density...
Loading historical data...
Loading historical data...
Loading historical data...
Loading historical data...
Loading historical data...
Loading historical data...
Loading historical data...
Other satellites on launch #72 in the year 2022 (2022-06-30 UTC)

Documentation

Showing up to 5 results
|